Weather in Falevo

Russia / Tver Oblast     57°16′19″N   37°50′44″E
temp.,
°C
wind,
m/s
gust,
m/s
humid.,
%
clouds,
%
prec.,
mm/h
press.,
hPa
HPBL,
m
12 august, fri
fri1200:00+14sw337223 0.0 102525
03:00+13wsw3377100 0.0 102536
06:00+13wsw3577100 0.0 102590
09:00+19w3462100 0.0 1025327
12:00+23w4547100 0.0 10241046
15:00+25w4542100 0.0 10231392
18:00+23w3557100 0.0 1022229
21:00+18w3372100 0.0 102330
13 august, sat
sat1300:00+16wnw2279100 0.0 102316
03:00+15nw2281100 0.0 102311
06:00+15wnw1180100 0.0 102313
09:00+21w2262100 0.0 1023315
12:00+24wnw2250100 0.0 10221023
15:00+26wnw2244100 0.0 10211442
18:00+25n0156100 0.0 1020208
21:00+19ssw116894 0.0 102011
14 august, sun
sun1400:00+17wsw1178100 0.0 102111
03:00+16wsw118296 0.0 102011
06:00+16wsw11815 0.0 102111
09:00+22wsw11616 0.0 1021341
12:00+26nnw104910 0.0 10201233
15:00+27n11436 0.0 10201718
18:00+26nw12529 0.0 1019157
21:00+20nne22633 0.0 102011
15 august, mon
mon1500:00+18ene22775 0.0 102016
03:00+17e22775 0.0 102111
06:00+17ene227716 0.0 102123
09:00+23e22565 0.0 1021360
12:00+28ese22434 0.0 10211470
15:00+29sse223829 0.0 10202295
18:00+27e224991 0.0 102044
21:00+22ene335444 0.0 102140
16 august, tue
tue1600:00+23ese4951100 0.0 1022294
03:00+21ese3757100 0.0 1022198
06:00+20ese366261 0.0 1023150
09:00+24se465484 0.0 1023418
12:00+28se57415 0.0 10231865
15:00+29se573517 0.0 10222603
18:00+27se474285 0.0 1021456
21:00+21ese4115958 0.0 1022195